星链-32930 (STARLINK-32930)

导读

STARLINK-32930是美国SpaceX公司星链星座的一员,于2025年3月13日发射,属于星链全球低轨卫星互联网组网的组成部分。作为量产型低轨通信卫星,它搭载Ku/Ka波段通信载荷,配备氪基霍尔推进器,具备自主避撞能力,服役寿命约5-7年,旨在为全球提供高速低时延宽带互联服务,服役结束后会主动离轨坠入大气层销毁。

基本信息
目录编号:
63203
目录名称:
STARLINK-32930
国际标识:
2025-048W
轨道中心:
EARTH
卫星名称:
星链-32930
卫星全名:
星链-32930 (STARLINK-32930)
卫星状态:
在轨 (已飞行540 天)
发射日期:
2025-03-13 UTC
国别 :
美国 (US)
星等 :
--
轨道信息
数据来源 国际轨道数据
星历时间: 2026-09-04T02:24:13+0800
9小时前
查看轨道信息
半长轴: 6861.151km
偏心率: 0.0001275
轨道倾角: 43.001°
近地点辐角 257.091°
升交点赤经 159.898°
平近点角 102.980°
近地点: 482.139km
远地点: 483.889km
周期: 94.266分钟
每日圈数: 15.27592
详细信息
固有亮度:
5
最大亮度:
2.5
卫星平台:
Starlink V1.0
覆盖范围:
全球
运营商:
太空探索技术公司
运营商所在国:
美国
制造商(研发单位):
太空探索技术公司
制造商所在国:
美国
使用方式:
暂无
卫星简介
Starlink 计划是 SpaceX 推出的全球卫星互联网项目,通过发射低轨道卫星,为全球尤其是偏远地区提供高速、低延迟的互联网服务。自 2019 年起,Starlink 已部署数千颗卫星,旨在缩小全球数字鸿沟,推动互联网普及。该项目还为军事、航空等行业提供通信支持,带来广泛经济效益。
2D轨道图
3D轨道图
轨道高度分析图
轨道倾角分析图
轨道综合分析图
查看轨道综合分析图
交会数据列表
事件ID 空间交会对象 最接近时刻(TCA) 交会距离 交会风险概率(CRP) 交会风险指数(CRI) 操作
CDM_260904-185606-320306-658021
2026-09-04T
18:56:22+0000
0.383 km
远距离
2.529705E-4 高风险 0.83
CDM_260904-183606-320306-734321
2026-09-04T
18:36:42+0000
0.440 km
远距离
2.147984E-4 高风险 0.82
CDM_260903-220505-642806-320321
2026-09-03T
22:05:55+0000
0.440 km
远距离
1.860501E-4 高风险 0.8
CDM_260904-203006-320306-658021
2026-09-04T
20:30:32+0000
0.574 km
远距离
9.901555E-5 中风险 0.75
CDM_260905-141306-320306-734321
2026-09-05T
14:13:36+0000
0.639 km
远距离
8.496476E-5 中风险 0.74
CDM_260904-141605-957006-320321
2026-09-04T
14:16:40+0000
0.676 km
远距离
5.445665E-5 中风险 0.7
CDM_260905-104405-844306-320321
2026-09-05T
10:44:10+0000
0.705 km
远距离
3.422533E-5 中风险 0.66
CDM_260904-102305-806206-320321
2026-09-04T
10:23:19+0000
0.955 km
远距离
1.506083E-5 中风险 0.59
CDM_260904-170206-320306-734321
2026-09-04T
17:02:33+0000
1.219 km
极远距离
1.021169E-5 中风险 0.55
CDM_260904-172206-320306-658021
2026-09-04T
17:22:13+0000
1.234 km
极远距离
8.405722E-6 低风险 0.53